TIME,DELAY(SENSOR),PRES,OXYGEN,RAWTEMP,T(OPTODE),TCPHASE,FLUOR,BETA(BETA700),BETA(BETA412),BETA(BETA440),CDOM,C(CSC),ED(ED412.20),ED(ED444.00),ED(ED489.60),ED(ED554.30),LU(LU412.10),LU(LU443.90),LU(LU489.70),LU(LU554.70),COMP,TILTX,TILTY,CHECK
1362196235,5811,875.3900146484375000,35.3509407043457000,562.1254882812500000,4.4200019836425780,56.2496910095214840,55,97,99,79,81,15525,0,0,0,0,2147124251,2147768987,2147571437,2147569243,2802,2,13,40530
1362199831,5807,948.4400024414062000,40.2912216186523440,567.1499023437500000,4.2640948295593260,55.5397491455078100,55,101,100,76,81,15520,0,0,0,0,2147121673,2147766683,2147572123,2147569216,255,2,13,12916
1362203431,5807,958.3300170898438000,40.9046287536621100,568.1002197265625000,4.2345848083496090,55.4576988220214840,55,99,99,77,81,15505,0,0,0,0,2147121307,2147770093,2147571328,2147569682,3287,2,13,45930
1362207031,5810,975.5599975585938000,42.5381202697753900,571.5828247070312000,4.1263661384582520,55.2598686218261700,55,100,100,78,81,15504,0,0,0,0,2147122953,2147765778,2147572489,2147571355,3503,2,13,22975
1362210631,5809,980.0000000000000000,42.6671409606933600,572.1456298828125000,4.1088681221008300,55.2408714294433600,55,98,99,77,81,15502,0,0,0,0,2147124187,2147767122,2147570422,2147566756,44,3,13,42968
1362214231,5810,990.2000122070312000,42.2682800292968750,571.4213256835938000,4.1313838958740230,55.2968788146972660,55,98,99,77,81,15501,0,0,0,0,2147124169,2147769920,2147572150,2147568841,3312,2,13,6192
1362217831,5809,991.0399780273438000,42.0227699279785160,571.3342285156250000,4.1340918540954590,55.3282508850097660,55,99,100,78,81,15501,0,0,0,0,2147123739,2147771483,2147575360,2147570989,366,2,13,18811
1362221431,5810,994.9099731445312000,42.0943412780761700,571.7507934570312000,4.1211409568786620,55.3261604309082000,55,97,100,77,82,15493,0,0,0,0,2147121069,2147771172,2147570678,2147568045,348,2,13,13443
1362225031,5811,995.5999755859375000,41.1748809814453100,571.4398193359375000,4.1308121681213380,55.4576606750488300,55,98,100,77,82,15500,0,0,0,0,2147124836,2147766619,2147568292,2147566089,92,2,13,7718
1362228631,5810,998.7399902343750000,41.5368309020996100,571.3656005859375000,4.1331181526184080,55.3995208740234400,55,99,99,78,81,15455,0,0,0,0,2147121801,2147764571,2147569700,2147566381,3544,2,13,33508
1362232231,5809,998.6500244140625000,41.7712211608886700,571.4365844726562000,4.1309089660644530,55.3664512634277340,55,98,100,78,82,15458,0,0,0,0,2147123748,2147771346,2147570139,2147570294,3590,2,13,29678
1362235831,5809,992.2500000000000000,41.7534217834472660,571.7733154296875000,4.1204400062561035,55.3760910034179700,54,100,99,79,81,15458,0,0,0,0,2147120356,2147774418,2147567387,2147571172,152,2,13,45524
1362239431,5810,996.3900146484375000,41.6856994628906250,571.5421142578125000,4.1276278495788570,55.3813514709472660,55,98,100,78,82,15459,0,0,0,0,2147123401,2147771392,2147574939,2147571629,128,2,13,19735
1362243031,5810,1001.2600097656250000,41.4519996643066400,571.2749023437500000,4.1359372138977050,55.4117088317871100,54,100,99,76,81,15454,0,0,0,0,2147121280,2147772736,2147571986,2147570285,48,2,13,38604
1362246631,5813,1001.0800170898438000,41.6088600158691400,571.2631835937500000,4.1363010406494140,55.3868598937988300,55,97,103,78,81,15449,0,0,0,0,2147121846,2147767789,2147562422,2147568192,48,3,13,25992
1362250231,5808,1003.3599853515625000,41.6642494201660160,571.4019165039062000,4.1319899559021000,55.3861007690429700,55,100,100,76,82,15449,0,0,0,0,2147121920,2147767862,2147573156,2147565833,326,2,13,26862
1362253831,5809,997.6599731445312000,41.7058486938476560,571.6552124023438000,4.1241130828857420,55.3794403076171900,55,97,99,78,82,15449,0,0,0,0,2147125650,2147770249,2147566226,2147566884,330,2,13,42375
1362257431,5813,996.2100219726562000,41.9561195373535160,571.8721923828125000,4.1173667907714840,55.3470802307128900,55,98,99,78,81,15448,0,0,0,0,2147123318,2147773686,2147569435,2147570486,155,2,13,57039
1362261031,5810,997.7600097656250000,41.9249687194824200,572.0272827148438000,4.1125431060791020,55.3560218811035160,55,97,99,81,83,15450,0,0,0,0,2147125586,2147766902,2147571712,2147568384,150,2,13,11366
1362264631,5812,1000.4199829101562000,41.7408981323242200,572.2006835937500000,4.1071529388427730,55.3838310241699200,54,98,101,78,83,15447,0,0,0,0,2147125970,2147771053,2147573165,2147568676,29,3,13,45174
1362268231,5809,995.5399780273438000,41.7437896728515600,572.2457885742188000,4.1057491302490230,55.3837394714355500,56,100,101,78,81,15446,0,0,0,0,2147125476,2147774528,2147575533,2147570194,3432,2,13,18764
1362271831,5809,991.1599731445312000,42.4960708618164060,572.6995849609375000,4.0916390419006350,55.2777404785156250,55,97,101,77,81,15450,0,0,0,0,2147123785,2147774107,2147570971,2147571556,285,2,13,10329
1362275431,5808,991.2100219726562000,42.2414588928222660,573.1254272460938000,4.0783939361572270,55.3196983337402340,55,96,99,78,82,15446,0,0,0,0,2147124891,2147772324,2147569398,2147567634,402,3,13,62369
1362279031,5809,993.1799926757812000,43.3350296020507800,573.7670288085938000,4.0584387779235840,55.1651916503906250,55,107,99,78,83,15447,0,0,0,0,2147126491,2147769152,2147571428,2147568530,3537,2,13,29583
1362282631,5810,995.1400146484375000,43.3682594299316400,573.8314819335938000,4.0564308166503910,55.1611900329589840,55,99,100,78,81,15438,0,0,0,0,2147124745,2147764050,2147569435,2147566235,53,2,13,4336
1362286231,5807,991.5000000000000000,43.4688682556152340,573.8054199218750000,4.0572428703308105,55.1517791748046900,55,99,100,76,81,15454,0,0,0,0,2147121819,2147769856,2147569334,2147569389,3528,2,13,10775
1362289831,5811,998.5300292968750000,43.4906616210937500,573.1682128906250000,4.0770649909973145,55.1397514343261700,56,99,100,78,81,15468,0,0,0,0,2147124233,2147772032,2147573476,2147565970,2953,2,13,30130
1362293431,5810,992.4600219726562000,42.0884208679199200,572.9310913085938000,4.0844402313232420,55.3346290588378900,55,98,100,78,82,15469,0,0,0,0,2147123392,2147767405,2147576402,2147569581,3230,2,13,17953
1362297031,5810,1008.8599853515625000,41.9345397949218750,571.7462768554688000,4.1212811470031740,55.3455696105957000,55,99,101,78,82,15471,0,0,0,0,2147125275,2147772169,2147576283,2147569801,164,2,13,37916
1362300631,5810,1014.0399780273438000,41.0124397277832000,570.7128295898438000,4.1534080505371090,55.4734306335449200,54,98,100,78,82,15470,0,0,0,0,2147122230,2147769984,2147570276,2147564708,3427,2,13,32557
1362304231,5811,1010.6300048828125000,40.8398399353027340,570.6060791015625000,4.1567230224609375,55.4934501647949200,54,98,99,78,83,15466,0,0,0,0,2147122761,2147767149,2147569590,2147568941,194,2,13,34009
1362307831,5809,1006.1300048828125000,41.4890899658203100,571.2772827148438000,4.1358599662780760,55.4077911376953100,54,98,100,78,82,15469,0,0,0,0,2147123465,2147767433,2147572470,2147567405,3379,2,13,51055
1362311431,5811,1003.7700195312500000,40.5733108520507800,571.2625732421875000,4.1363158226013180,55.5407791137695300,55,98,99,78,81,15463,0,0,0,0,2147124854,2147765778,2147571785,2147568676,3469,2,13,50932
1362315031,5808,1004.3099975585938000,40.5158195495605500,571.4462280273438000,4.1306099891662600,55.5552101135253900,54,96,101,77,82,15467,0,0,0,0,2147124077,2147771675,2147572781,2147566491,190,2,13,30118
1362318631,5810,995.6300048828125000,41.9669494628906250,573.6671142578125000,4.0615458488464355,55.3630409240722660,54,98,100,77,82,15464,0,0,0,0,2147123702,2147769773,2147575606,2147567808,2965,2,13,23960
1362322231,5808,1001.6500244140625000,41.4581794738769500,572.0996704101562000,4.1102919578552250,55.4205589294433600,56,97,99,79,82,15465,0,0,0,0,2147123977,2147767113,2147570322,2147568173,345,2,13,29248
1362325831,5810,995.0900268554688000,41.8635711669921900,573.4163208007812000,4.0693488121032715,55.3810081481933600,54,98,99,77,81,15469,0,0,0,0,2147121517,2147768960,2147571803,2147567634,26,2,13,57055
1362329431,5810,997.1500244140625000,43.0959510803222660,574.2647705078125000,4.0429530143737790,55.2087783813476560,54,99,101,78,82,15467,0,0,0,0,2147120411,2147769645,2147571858,2147564681,284,2,13,28576
1362333031,5808,993.2700195312500000,42.9555091857910160,573.4946289062500000,4.0669121742248535,55.2215309143066400,56,101,100,79,82,15464,0,0,0,0,2147121764,2147768621,2147570980,2147565046,484,2,13,61010
1362336631,5813,1008.3099975585938000,43.2128906250000000,573.1093139648438000,4.0788960456848145,55.1801185607910160,54,99,100,79,82,15464,0,0,0,0,2147124717,2147770450,2147574619,2147569856,164,2,13,6272
1362340231,5810,1001.3300170898438000,41.7114601135253900,572.3745727539062000,4.1017441749572750,55.3845481872558600,55,142,101,78,82,15465,0,0,0,0,2147124708,2147770779,2147574482,2147568146,222,2,13,57541
1362341455,5809,998.8400268554688000,41.4705200195312500,572.7968139648438000,4.0886168479919430,55.4281082153320300,55,98,100,78,81,15465,0,0,0,0,2147123648,2147772123,2147573028,2147566564,529,2,13,25839
